Hourly Data Report for July 23, 2017

TORONTO CITY
ONTARIO

43°40'00.000" N
79°24'00.000" W
112.50 m
6158355
71508
XTO

Download Data

Hourly Data (July 2017)
Hourly Data Report for July 23, 2017
TIME
LST
Temp Definition
°C
Dew Point Definition
°C
Rel Hum Definition
%
Precip. Amount Definition
mm

Wind Dir Definition
10's deg

Wind Spd Definition
km/h
Visibility Definition
km
Stn Press Definition
kPa
Hmdx Definition


Wind Chill Definition


Weather Definition


00:00 20.3 18.3 88 0.0 LegendMM LegendMM   99.55 27   LegendNANA
01:00 20.6 16.4 77 0.0 LegendMM LegendMM   99.51 25   LegendNANA
02:00 20.6 17.8 84 0.0 LegendMM LegendMM   99.49 26   LegendNANA
03:00 21.1 17.3 79 0.0 LegendMM LegendMM   99.45 27   LegendNANA
04:00 21.5 17.7 79 0.0 LegendMM LegendMM   99.43 27   LegendNANA
05:00 21.4 17.5 79 0.0 LegendMM LegendMM   99.44 27   LegendNANA
06:00 21.5 18.2 82 0.0 LegendMM LegendMM   99.49 28   LegendNANA
07:00 21.7 18.0 79 0.0 LegendMM LegendMM   99.50 28   LegendNANA
08:00 21.7 18.4 82 0.0 LegendMM LegendMM   99.53 28   LegendNANA
09:00 21.6 18.5 83 0.0 LegendMM LegendMM   99.53 28   LegendNANA
10:00 21.8 18.5 82 0.0 LegendMM LegendMM   99.52 28   LegendNANA
11:00 22.0 18.1 78 0.0 LegendMM LegendMM   99.54 28   LegendNANA
12:00 23.1 17.7 72 0.0 LegendMM LegendMM   99.53 29   LegendNANA
13:00 22.8 17.3 71 0.0 LegendMM LegendMM   99.51 28   LegendNANA
14:00 23.3 17.6 70 0.0 LegendMM LegendMM   99.48 29   LegendNANA
15:00 22.9 16.9 69 0.0 LegendMM LegendMM   99.46 28   LegendNANA
16:00 22.8 16.3 67 0.0 LegendMM LegendMM   99.43 28   LegendNANA
17:00 23.0 16.2 65 0.0 LegendMM LegendMM   99.42 28   LegendNANA
18:00 22.9 15.9 65 0.0 LegendMM LegendMM   99.39 27   LegendNANA
19:00 22.8 15.1 62 0.0 LegendMM LegendMM   99.41 27   LegendNANA
20:00 22.1 15.8 68 0.0 LegendMM LegendMM   99.43 27   LegendNANA
21:00 22.1 13.9 60 0.0 LegendMM LegendMM   99.47 25   LegendNANA
22:00 21.4 13.7 62 0.0 LegendMM LegendMM   99.38 25   LegendNANA
23:00 21.0 13.8 64 0.0 LegendMM LegendMM   99.41     LegendNANA

Notes on Data Quality.

Legend

  • E = Estimated
  • M = Missing
  • NA = Not Available*
  • [empty] = Indicates an unobserved value
Date modified: